Torna al catalogo

CZ-4B DEB

AttivoSSO
NORAD 28438·DEBRIS·🇨🇳 China

Lanciato May 15, 2002 da Taiyuan Satellite Launch Center

Loading…

Prossimi Passaggi (prossime 24 ore)

TLE

AggiornatoSource: Space-Track

Epoca: Sep 14, 2026, 00:24 UTC

1 28438U 02024E   26257.01687132  .00002368  00000-0  62274-3 0  9996
2 28438  98.6376 279.9133 0015448 198.5128 161.5505 14.49992395267144

Traccia CZ-4B DEB in tempo reale con AllMySat

Download on the App Store